K2CAT Weather Reports


time (UTC)temp
F
wind
direction
speed
knots
gust
knots
rain 1hr
in
rain 24hr
in
rain mn
in
humidity
%
barometer
mb
20260506145646 64 11 0.0 0.0 0.05 0.01 0.01 87 1007.9
20260506145143 65 315 0.9 0.9 0.05 0.01 0.01 86 1007.8
20260506144641 65 206 0.0 0.9 0.00 0.00 0.00 85 1007.6
20260506144137 65 245 0.0 0.0 0.00 0.00 0.00 84 1007.7
20260506143635 66 25 1.7 2.6 0.00 0.00 0.00 84 1007.6
20260506143133 66 15 0.0 0.9 0.00 0.00 0.00 83 1007.8
20260506142631 66 328 0.0 0.0 0.00 0.00 0.00 82 1008.0
20260506142129 66 284 0.0 0.0 0.00 0.00 0.00 82 1008.0
20260506141626 66 349 0.0 0.0 0.00 0.00 0.00 82 1008.0
20260506141124 66 292 0.0 0.0 0.00 0.00 0.00 81 1008.0
20260506140622 66 218 0.0 0.0 0.00 0.00 0.00 80 1008.1
20260506140119 67 215 0.9 0.9 0.00 0.00 0.00 78 1008.2
20260506135615 67 320 0.0 0.9 0.00 0.00 0.00 78 1008.1
20260506135112 67 212 0.9 1.7 0.00 0.00 0.00 77 1007.9
20260506134608 68 135 2.6 5.2 0.00 0.00 0.00 75 1007.8
20260506134104 68 62 0.9 0.9 0.00 0.00 0.00 75 1008.0
20260506133602 68 301 0.0 0.0 0.00 0.00 0.00 76 1007.6
20260506133059 68 154 1.7 1.7 0.00 0.00 0.00 75 1007.6
20260506132556 68 293 0.0 0.0 0.00 0.00 0.00 77 1007.6
20260506132053 68 263 0.0 0.0 0.00 0.00 0.00 79 1007.3
20260506131550 67 316 0.0 0.0 0.00 0.00 0.00 79 1007.4
20260506131046 66 319 0.0 0.0 0.00 0.00 0.00 79 1007.5
20260506130543 66 205 0.9 1.7 0.00 0.00 0.00 80 1007.3
20260506130041 66 290 0.9 1.7 0.00 0.00 0.00 82 1007.3
20260506125539 65 275 0.0 0.0 0.00 0.00 0.00 82 1007.3
20260506125036 65 259 0.0 0.0 0.00 0.00 0.00 83 1007.6
20260506124534 65 257 0.0 0.9 0.00 0.00 0.00 83 1007.6
20260506124032 64 229 0.0 0.0 0.00 0.00 0.00 83 1007.8
20260506123529 64 228 0.0 0.0 0.00 0.00 0.00 83 1007.7
20260506123027 64 228 0.0 0.0 0.00 0.00 0.00 84 1007.9
20260506122524 64 227 0.0 0.0 0.00 0.00 0.00 84 1007.7
20260506122022 64 306 0.0 0.0 0.00 0.00 0.00 83 1007.9
20260506121519 64 307 0.0 0.0 0.00 0.00 0.00 83 1007.9
20260506121015 64 299 0.0 0.0 0.00 0.00 0.00 83 1007.8
20260506120514 64 292 0.9 0.9 0.00 0.00 0.00 82 1007.9
20260506120011 64 229 0.0 0.0 0.00 0.00 0.00 83 1007.9
20260506115508 64 220 0.0 0.9 0.00 0.00 0.00 83 1008.1
20260506115007 64 319 0.0 0.0 0.00 0.00 0.00 82 1008.1
20260506114504 64 319 0.0 0.0 0.00 0.00 0.00 83 1007.9
20260506114002 63 319 0.0 0.0 0.00 0.00 0.00 83 1007.7
20260506113459 63 319 0.0 0.0 0.00 0.00 0.00 82 1007.7
20260506112956 63 319 0.0 0.0 0.00 0.00 0.00 83 1007.6
20260506112453 63 319 0.0 0.0 0.00 0.00 0.00 82 1007.8
20260506111950 63 319 0.0 0.0 0.00 0.00 0.00 81 1007.8
20260506111449 63 320 0.0 0.9 0.00 0.00 0.00 81 1007.6
20260506110945 62 230 0.9 0.9 0.00 0.00 0.00 83 1007.6
20260506110443 62 325 0.0 0.0 0.00 0.00 0.00 83 1007.8
20260506105939 62 324 0.0 0.0 0.00 0.00 0.00 83 1007.6
20260506105436 62 309 0.0 0.0 0.00 0.00 0.00 83 1007.4
20260506104933 61 316 0.0 0.0 0.00 0.00 0.00 84 1007.9
20260506104431 61 316 0.0 0.0 0.00 0.00 0.00 84 1007.7
20260506103929 61 317 0.0 0.9 0.00 0.00 0.00 84 1007.8
20260506103427 60 306 0.0 0.0 0.00 0.00 0.00 84 1007.8
20260506102923 60 257 0.9 0.9 0.00 0.00 0.00 84 1007.6
20260506102421 60 294 0.0 0.0 0.00 0.00 0.00 84 1007.4
20260506101918 60 294 0.0 0.0 0.00 0.00 0.00 84 1007.4
20260506101414 60 292 0.0 0.0 0.00 0.00 0.00 84 1007.4
20260506100912 60 294 0.0 0.0 0.00 0.00 0.00 84 1007.4
20260506100410 60 282 0.0 0.0 0.00 0.00 0.00 84 1007.3
20260506095908 60 231 0.0 0.9 0.00 0.00 0.00 84 1007.5
20260506095406 60 275 0.0 0.9 0.00 0.00 0.00 84 1007.5
20260506094902 60 271 0.0 0.9 0.00 0.00 0.00 85 1007.5
20260506094401 60 296 0.0 0.0 0.00 0.00 0.00 84 1007.6
20260506093858 60 299 0.0 0.9 0.00 0.00 0.00 83 1007.6
20260506093356 60 247 0.0 0.0 0.00 0.00 0.00 83 1007.5
20260506092853 60 236 0.9 0.9 0.00 0.00 0.00 83 1007.4
20260506092351 59 275 0.0 0.0 0.00 0.00 0.00 84 1007.3
20260506091847 59 275 0.9 0.9 0.00 0.00 0.00 84 1007.3
20260506091345 59 275 0.0 0.0 0.00 0.00 0.00 84 1007.4
20260506090842 59 246 0.0 0.0 0.00 0.00 0.00 84 1007.3
20260506090340 60 256 0.0 0.0 0.00 0.00 0.00 83 1007.3
20260506085836 60 246 0.9 0.9 0.00 0.00 0.00 83 1007.4
20260506085332 60 232 0.0 0.0 0.00 0.00 0.00 83 1007.4
20260506084829 60 313 0.0 0.0 0.00 0.00 0.00 82 1007.5
20260506084326 60 299 0.9 0.9 0.00 0.00 0.00 82 1007.6
20260506083823 60 301 0.0 0.0 0.00 0.00 0.00 82 1007.6
20260506083320 60 302 0.9 0.9 0.00 0.00 0.00 81 1007.6
20260506082818 61 259 0.0 0.0 0.00 0.00 0.00 81 1007.7
20260506082314 61 318 0.0 0.0 0.00 0.00 0.00 80 1007.7
20260506081810 61 281 0.0 0.0 0.00 0.00 0.00 79 1007.7
20260506081308 61 280 0.0 0.0 0.00 0.00 0.00 78 1007.9
20260506080806 62 277 0.0 0.9 0.00 0.00 0.00 78 1007.8
20260506080302 62 321 0.0 0.0 0.00 0.00 0.00 78 1007.5
20260506073246 62 317 0.0 0.0 0.00 0.00 0.00 76 1007.9
20260506072743 62 302 0.0 0.0 0.00 0.00 0.00 76 1007.5
20260506072240 63 291 0.0 0.0 0.00 0.00 0.00 76 1007.8
20260506071738 63 290 0.0 0.0 0.00 0.00 0.00 75 1007.6
20260506071236 63 266 0.0 0.0 0.00 0.00 0.00 74 1007.6
20260506070732 63 313 0.0 0.0 0.00 0.00 0.00 74 1007.7
20260506070229 64 295 0.0 0.0 0.00 0.00 0.00 74 1007.8
20260506062206 64 320 0.0 0.0 0.00 0.00 0.00 71 1008.0
20260506061702 63 225 0.0 0.0 0.00 0.00 0.00 73 1008.1
20260506061200 63 310 0.0 0.0 0.00 0.00 0.00 73 1008.2
20260506060659 63 274 0.0 0.0 0.00 0.00 0.00 73 1008.3
20260506060155 63 246 0.9 1.7 0.00 0.00 0.00 72 1008.1
20260506051127 63 323 0.9 0.9 0.00 0.00 0.00 73 1008.0
20260506050625 64 220 0.0 0.0 0.00 0.00 0.00 72 1008.3
20260506050122 63 238 0.0 0.9 0.00 0.00 0.00 72 1008.2
20260506045115 63 285 0.0 0.0 0.00 0.00 0.00 73 1008.3
20260506044613 63 286 0.0 0.9 0.00 0.00 0.00 73 1008.1
20260506044110 64 219 0.0 0.0 0.00 0.00 0.00 72 1008.2
20260506043607 64 219 0.0 0.0 0.00 0.00 0.00 71 1008.1
20260506043105 64 253 0.0 0.9 0.00 0.00 0.00 70 1008.2
20260506042604 65 260 0.0 0.9 0.00 0.00 0.00 69 1008.1
20260506042102 65 261 0.0 0.0 0.00 0.00 0.00 69 1008.0
20260506041600 65 335 0.0 0.0 0.00 0.00 0.00 70 1008.0
20260506041056 65 302 0.0 0.0 0.00 0.00 0.00 69 1008.1
20260506040554 65 302 0.0 0.0 0.00 0.00 0.00 69 1008.1
20260506040050 65 302 0.0 0.0 0.00 0.00 0.00 71 1008.0
20260506035547 65 322 0.0 0.0 0.00 0.00 0.00 70 1007.9
20260506035044 65 291 0.0 0.0 0.00 0.00 0.00 71 1007.7
20260506034541 66 291 0.0 0.0 0.00 0.00 0.00 70 1007.7
20260506034038 66 291 0.0 0.0 0.00 0.00 0.00 68 1007.8
20260506033536 66 291 0.0 0.0 0.00 0.00 0.00 68 1007.9
20260506033032 66 291 0.0 0.0 0.00 0.00 0.00 67 1007.9
20260506032530 66 291 0.0 0.0 0.00 0.00 0.00 66 1007.6
20260506032026 67 291 0.0 0.0 0.00 0.00 0.00 67 1007.9
20260506031524 67 291 0.0 0.0 0.00 0.00 0.00 66 1007.7
20260506031021 67 290 0.0 0.0 0.00 0.00 0.00 65 1007.7
20260506030519 68 291 0.0 0.0 0.00 0.00 0.00 65 1007.7
20260506030016 68 343 0.0 0.0 0.00 0.00 0.00 64 1007.7
20260506025513 68 257 0.0 0.9 0.00 0.00 0.00 64 1007.9
20260506025009 68 313 0.9 0.9 0.00 0.00 0.00 62 1007.8
20260506024507 69 313 0.0 0.0 0.00 0.00 0.00 61 1007.6
20260506024002 69 313 0.0 0.0 0.00 0.00 0.00 60 1007.8
20260506023459 69 312 0.0 0.0 0.00 0.00 0.00 59 1007.8
20260506022955 69 328 0.0 0.0 0.00 0.00 0.00 58 1007.8
20260506022453 70 317 0.0 0.0 0.00 0.00 0.00 58 1007.8
20260506021951 70 291 0.0 0.0 0.00 0.00 0.00 58 1007.8
20260506021448 70 291 0.0 0.0 0.00 0.00 0.00 57 1007.8
20260506020945 71 291 0.0 0.0 0.00 0.00 0.00 56 1007.6
20260506020443 71 291 0.0 0.0 0.00 0.00 0.00 55 1007.8
20260506015940 71 291 0.0 0.0 0.00 0.00 0.00 55 1007.5
20260506015437 71 291 0.0 0.0 0.00 0.00 0.00 54 1007.5
20260506014934 72 292 0.0 0.0 0.00 0.00 0.00 53 1007.4
20260506014431 72 302 0.0 0.0 0.00 0.00 0.00 53 1007.3
20260506013927 73 184 0.0 0.0 0.00 0.00 0.00 51 1007.4
20260506013426 73 184 0.0 0.0 0.00 0.00 0.00 48 1007.3
20260506012921 74 181 0.0 0.0 0.00 0.00 0.00 46 1007.3
20260506012418 75 181 0.0 0.0 0.00 0.00 0.00 44 1007.4
20260506011915 75 180 0.0 0.0 0.00 0.00 0.00 44 1006.9
20260506011412 76 217 0.0 0.0 0.00 0.00 0.00 43 1007.0
20260506010909 76 244 0.9 0.9 0.00 0.00 0.00 41 1007.0
20260506010408 76 257 0.0 0.0 0.00 0.00 0.00 42 1007.0
20260506005904 76 283 0.0 0.0 0.00 0.00 0.00 42 1006.7
20260506005402 77 251 0.0 0.0 0.00 0.00 0.00 42 1006.8
20260506004857 77 70 0.9 1.7 0.00 0.00 0.00 40 1006.7
20260506004355 77 131 0.0 0.9 0.00 0.00 0.00 41 1006.7
20260506003851 77 215 0.0 0.0 0.00 0.00 0.00 41 1006.9
20260506003347 77 340 0.0 0.9 0.00 0.00 0.00 41 1006.9
20260506002843 77 296 0.0 0.0 0.00 0.00 0.00 40 1006.4
20260506002340 77 255 0.0 0.9 0.00 0.00 0.00 40 1006.7
20260506001835 77 245 0.0 0.9 0.00 0.00 0.00 39 1006.6
20260506001333 78 212 0.0 0.9 0.00 0.00 0.00 40 1006.5
20260506000830 78 303 0.9 1.7 0.00 0.00 0.00 40 1006.3
20260506000329 78 141 0.9 1.7 0.00 0.00 0.00 39 1006.3
20260505235824 78 133 0.9 0.9 0.00 0.00 0.00 39 1006.4
20260505235322 78 217 0.9 0.9 0.00 0.00 0.00 39 1006.4
20260505234818 78 58 3.5 6.1 0.00 0.00 0.00 38 1006.4
20260505234316 78 236 0.9 1.7 0.00 0.00 0.00 39 1006.2
20260505233813 78 142 0.9 1.7 0.00 0.00 0.00 40 1006.0
20260505233311 78 207 0.0 0.0 0.00 0.00 0.00 39 1006.1
20260505232808 78 46 0.0 0.9 0.00 0.00 0.00 39 1005.9
20260505232306 79 231 0.0 0.9 0.00 0.00 0.00 38 1006.1
20260505231802 78 277 0.9 1.7 0.00 0.00 0.00 38 1005.8
20260505231300 79 196 1.7 3.5 0.00 0.00 0.00 37 1005.9
20260505230758 79 110 1.7 1.7 0.00 0.00 0.00 38 1005.8
20260505230255 79 200 1.7 2.6 0.00 0.00 0.00 37 1005.7
20260505225751 79 103 1.7 2.6 0.00 0.00 0.00 37 1005.7
20260505225249 79 214 0.9 0.9 0.00 0.00 0.00 37 1005.6
20260505224743 80 277 1.7 2.6 0.00 0.00 0.00 36 1005.6
20260505224241 80 259 0.9 0.9 0.00 0.00 0.00 36 1005.6
20260505223739 80 281 0.9 0.9 0.00 0.00 0.00 36 1005.5
20260505223235 80 75 0.9 1.7 0.00 0.00 0.00 36 1005.3
20260505222731 80 327 0.0 0.0 0.00 0.00 0.00 35 1005.3
20260505222227 80 47 1.7 1.7 0.00 0.00 0.00 34 1005.2
20260505221725 80 110 1.7 1.7 0.00 0.00 0.00 34 1005.2
20260505221221 81 31 1.7 1.7 0.00 0.00 0.00 35 1005.2
20260505220718 81 229 1.7 3.5 0.00 0.00 0.00 34 1005.1
20260505220216 81 40 0.9 0.9 0.00 0.00 0.00 34 1005.2
20260505215714 81 263 2.6 3.5 0.00 0.00 0.00 35 1004.9
20260505215211 81 218 1.7 1.7 0.00 0.00 0.00 35 1005.0
20260505214709 81 4 0.0 0.9 0.00 0.00 0.00 35 1004.9
20260505214206 82 96 1.7 2.6 0.00 0.00 0.00 34 1004.8
20260505213703 82 195 2.6 5.2 0.00 0.00 0.00 34 1004.7
20260505213200 82 151 1.7 2.6 0.00 0.00 0.00 34 1004.7
20260505212656 82 54 1.7 2.6 0.00 0.00 0.00 34 1004.7
20260505212154 82 233 6.1 9.6 0.00 0.00 0.00 32 1004.6
20260505211650 82 185 1.7 3.5 0.00 0.00 0.00 33 1004.6
20260505211148 82 179 5.2 7.0 0.00 0.00 0.00 32 1004.4
20260505210644 83 313 0.9 1.7 0.00 0.00 0.00 33 1004.6
20260505210141 84 151 0.9 1.7 0.00 0.00 0.00 33 1004.5
20260505205638 85 178 2.6 3.5 0.00 0.00 0.00 33 1004.5
20260505205137 85 88 1.7 1.7 0.00 0.00 0.00 32 1004.3
20260505204633 85 254 2.6 3.5 0.00 0.00 0.00 33 1004.5
20260505204131 85 185 1.7 2.6 0.00 0.00 0.00 32 1004.4
20260505203628 84 184 4.3 5.2 0.00 0.00 0.00 33 1004.6
20260505203125 84 221 4.3 6.1 0.00 0.00 0.00 32 1004.7
20260505202620 85 63 1.7 2.6 0.00 0.00 0.00 34 1004.4
20260505202116 85 42 3.5 6.1 0.00 0.00 0.00 34 1004.5
20260505201613 84 159 2.6 5.2 0.00 0.00 0.00 33 1004.9
20260505201111 84 107 3.5 7.0 0.00 0.00 0.00 33 1004.7
20260505200609 83 198 1.7 1.7 0.00 0.00 0.00 34 1004.9
20260505200106 83 200 3.5 5.2 0.00 0.00 0.00 33 1004.6
20260505195601 84 192 7.0 11.3 0.00 0.00 0.00 32 1005.0
20260505195059 85 74 3.5 3.5 0.00 0.00 0.00 34 1004.9
20260505194556 85 316 2.6 5.2 0.00 0.00 0.00 33 1005.0
20260505194052 85 158 2.6 3.5 0.00 0.00 0.00 33 1005.0
20260505193549 84 238 2.6 5.2 0.00 0.00 0.00 35 1005.2
20260505193046 84 357 1.7 2.6 0.00 0.00 0.00 35 1005.1
20260505192545 84 99 3.5 5.2 0.00 0.00 0.00 35 1005.2
20260505192042 85 233 3.5 7.0 0.00 0.00 0.00 34 1005.4
20260505191540 84 295 1.7 3.5 0.00 0.00 0.00 35 1005.1
20260505191038 84 152 5.2 8.7 0.00 0.00 0.00 33 1005.4
20260505190538 85 244 5.2 8.7 0.00 0.00 0.00 34 1005.5
20260505190034 84 143 1.7 2.6 0.00 0.00 0.00 35 1005.3
20260505185531 84 25 1.7 3.5 0.00 0.00 0.00 40 1005.5
20260505185028 85 129 3.5 5.2 0.00 0.00 0.00 35 1005.7
20260505184524 84 307 0.9 0.9 0.00 0.00 0.00 39 1005.3
20260505184021 84 91 2.6 2.6 0.00 0.00 0.00 37 1005.4
20260505183518 84 145 3.5 5.2 0.00 0.00 0.00 37 1005.7
20260505183015 84 321 5.2 7.8 0.00 0.00 0.00 37 1005.7
20260505182512 85 68 2.6 3.5 0.00 0.00 0.00 37 1005.6
20260505182008 85 242 2.6 3.5 0.00 0.00 0.00 36 1005.8
20260505181505 84 231 1.7 3.5 0.00 0.00 0.00 37 1005.9
20260505181002 84 194 3.5 6.1 0.00 0.00 0.00 36 1006.0
20260505180458 83 132 3.5 5.2 0.00 0.00 0.00 40 1006.0
20260505175955 84 210 7.0 9.6 0.00 0.00 0.00 38 1006.2
20260505175451 84 189 3.5 6.1 0.00 0.00 0.00 38 1006.0
20260505174948 83 188 5.2 8.7 0.00 0.00 0.00 39 1006.2
20260505174445 82 126 2.6 3.5 0.00 0.00 0.00 41 1006.2
20260505173941 83 225 3.5 5.2 0.00 0.00 0.00 39 1006.2
20260505173438 83 142 6.1 8.7 0.00 0.00 0.00 40 1006.2
20260505172935 82 156 1.7 1.7 0.00 0.00 0.00 44 1006.3
20260505172433 82 54 0.9 1.7 0.00 0.00 0.00 42 1006.3
20260505171932 82 156 7.0 8.7 0.00 0.00 0.00 41 1006.5
20260505171430 82 219 0.9 0.9 0.00 0.00 0.00 42 1006.1
20260505170926 82 196 2.6 3.5 0.00 0.00 0.00 42 1006.4
20260505170423 81 169 1.7 2.6 0.00 0.00 0.00 44 1006.4
20260505165918 81 81 0.9 0.9 0.00 0.00 0.00 46 1006.4
20260505165414 81 33 6.1 8.7 0.00 0.00 0.00 43 1006.8
20260505164909 81 266 2.6 5.2 0.00 0.00 0.00 43 1006.9
20260505164407 80 241 1.7 2.6 0.00 0.00 0.00 46 1006.9
20260505163905 80 56 1.7 2.6 0.00 0.00 0.00 47 1007.0
20260505163404 80 214 2.6 3.5 0.00 0.00 0.00 48 1007.0
20260505162902 79 92 1.7 2.6 0.00 0.00 0.00 46 1007.0
20260505162357 79 208 0.9 1.7 0.00 0.00 0.00 48 1007.3
20260505161855 79 200 3.5 6.1 0.00 0.00 0.00 46 1007.4
20260505161351 79 201 2.6 2.6 0.00 0.00 0.00 46 1007.3
20260505160849 79 313 0.0 0.9 0.00 0.00 0.00 49 1007.4
20260505160347 79 56 0.9 1.7 0.00 0.00 0.00 51 1007.5
20260505153325 77 214 3.5 6.1 0.00 0.00 0.00 49 1008.1
20260505152822 77 46 0.9 1.7 0.00 0.00 0.00 50 1007.9
20260505152319 78 61 0.9 0.9 0.00 0.00 0.00 49 1008.1
20260505151814 78 54 2.6 3.5 0.00 0.00 0.00 47 1008.2
20260505151311 77 296 2.6 3.5 0.00 0.00 0.00 49 1008.1
20260505150808 77 210 0.9 0.9 0.00 0.00 0.00 50 1008.2
20260505150305 76 248 1.7 2.6 0.00 0.00 0.00 50 1008.0